Simultaneous Nadir Overpasses (SNOs) Predictions

Prediction of SNOs between GOES-14 and AQUA Satellite Orbit:

Table of predicted SNOs for the next 14.0 days since TLE Epoch: 1/28/2023
Index Date Time (GOES-14) GOES-14 Lat,Lon AQUA Lat,Lon Distance(km) Time Diff (sec)
1 01/28/2023 08:38:42 -0.04,-104.72 -0.35,-103.33 158.98 80
2 01/28/2023 20:59:49 0.03,-104.36 -0.81,-108.43 462.45 80
3 01/30/2023 20:46:36 0.03,-104.39 -0.16,-105.21 93.92 80
4 02/01/2023 20:30:43 0.02,-104.41 0.53,-101.99 274.85 80
5 02/02/2023 08:51:44 -0.01,-104.77 0.47,-107.09 263.58 80
6 02/04/2023 08:41:10 -0.01,-104.80 -0.21,-103.87 105.86 80
7 02/06/2023 08:27:56 -0.01,-104.82 -0.93,-100.64 475.70 80
8 02/06/2023 20:49:02 0.01,-104.48 -0.26,-105.74 143.85 80
9 02/08/2023 20:33:07 0.01,-104.50 0.45,-102.52 226.12 80
10 02/09/2023 08:54:07 -0.01,-104.85 0.57,-107.61 313.99 80
